TimeEST,TemperatureF,Dew PointF,Humidity,Sea Level PressureIn,VisibilityMPH,Wind Direction,Wind SpeedMPH,Gust SpeedMPH,PrecipitationIn,Events,Conditions,WindDirDegrees,DateUTC
12:12 AM,30.2,26.6,86,30.15,10.0,Calm,Calm,-,N/A,,Clear,0,2012-11-05 05:12:00
12:32 AM,30.2,26.6,86,30.16,10.0,Calm,Calm,-,N/A,,Clear,0,2012-11-05 05:32:00
12:52 AM,30.2,26.6,86,30.16,10.0,Calm,Calm,-,N/A,,Clear,0,2012-11-05 05:52:00
1:12 AM,28.4,26.6,93,30.16,10.0,Calm,Calm,-,N/A,,Clear,0,2012-11-05 06:12:00
1:32 AM,28.4,26.6,93,30.15,10.0,Calm,Calm,-,N/A,,Clear,0,2012-11-05 06:32:00
1:53 AM,28.4,26.6,93,30.16,10.0,Calm,Calm,-,N/A,,Scattered Clouds,0,2012-11-05 06:53:00
2:13 AM,28.4,26.6,93,30.16,10.0,Calm,Calm,-,N/A,,Mostly Cloudy,0,2012-11-05 07:13:00
2:33 AM,28.4,26.6,93,30.16,10.0,Calm,Calm,-,N/A,,Scattered Clouds,0,2012-11-05 07:33:00
3:13 AM,26.6,24.8,93,30.17,10.0,Calm,Calm,-,N/A,,Clear,0,2012-11-05 08:13:00
3:33 AM,26.6,24.8,93,30.16,10.0,Calm,Calm,-,N/A,,Clear,0,2012-11-05 08:33:00
3:53 AM,28.4,26.6,93,30.16,10.0,Calm,Calm,-,N/A,,Clear,0,2012-11-05 08:53:00
4:13 AM,28.4,26.6,93,30.17,10.0,Calm,Calm,-,N/A,,Clear,0,2012-11-05 09:13:00
4:33 AM,28.4,26.6,93,30.16,10.0,North,3.5,-,N/A,,Scattered Clouds,350,2012-11-05 09:33:00
4:53 AM,28.4,26.6,93,30.17,10.0,North,3.5,-,N/A,,Clear,360,2012-11-05 09:53:00
5:14 AM,28.4,26.6,93,30.17,10.0,Calm,Calm,-,N/A,,Scattered Clouds,0,2012-11-05 10:14:00
5:34 AM,30.2,26.6,86,30.17,10.0,Calm,Calm,-,N/A,,Scattered Clouds,0,2012-11-05 10:34:00
5:54 AM,30.2,26.6,86,30.18,10.0,Calm,Calm,-,N/A,,Mostly Cloudy,0,2012-11-05 10:54:00
6:14 AM,30.2,26.6,86,30.18,10.0,NNW,3.5,-,N/A,,Overcast,340,2012-11-05 11:14:00
6:34 AM,30.2,28.4,93,30.18,10.0,Calm,Calm,-,N/A,,Overcast,0,2012-11-05 11:34:00
6:54 AM,32.0,28.4,87,30.19,10.0,Calm,Calm,-,N/A,,Overcast,0,2012-11-05 11:54:00
7:14 AM,32.0,28.4,87,30.19,10.0,North,3.5,-,N/A,,Overcast,350,2012-11-05 12:14:00
7:34 AM,33.8,28.4,81,30.19,10.0,Calm,Calm,-,N/A,,Overcast,0,2012-11-05 12:34:00
7:54 AM,33.8,28.4,81,30.19,10.0,Calm,Calm,-,N/A,,Overcast,0,2012-11-05 12:54:00
8:14 AM,33.8,28.4,81,30.19,10.0,Calm,Calm,-,N/A,,Overcast,0,2012-11-05 13:14:00
8:35 AM,35.6,28.4,75,30.19,10.0,Calm,Calm,-,N/A,,Overcast,0,2012-11-05 13:35:00
8:55 AM,37.4,30.2,75,30.20,10.0,Calm,Calm,-,N/A,,Overcast,0,2012-11-05 13:55:00
9:15 AM,37.4,30.2,75,30.20,10.0,North,3.5,-,N/A,,Overcast,360,2012-11-05 14:15:00
9:35 AM,39.2,26.6,61,30.20,10.0,North,4.6,-,N/A,,Overcast,350,2012-11-05 14:35:00
9:55 AM,39.2,26.6,61,30.20,10.0,North,5.8,-,N/A,,Overcast,350,2012-11-05 14:55:00
10:15 AM,39.2,26.6,61,30.20,10.0,NE,3.5,-,N/A,,Mostly Cloudy,40,2012-11-05 15:15:00
10:35 AM,39.2,26.6,61,30.20,10.0,NE,3.5,-,N/A,,Mostly Cloudy,40,2012-11-05 15:35:00
10:55 AM,39.2,26.6,61,30.21,10.0,NNW,4.6,-,N/A,,Overcast,340,2012-11-05 15:55:00
11:15 AM,39.2,24.8,56,30.21,10.0,Calm,Calm,-,N/A,,Mostly Cloudy,0,2012-11-05 16:15:00
11:36 AM,39.2,24.8,56,30.20,10.0,ENE,3.5,-,N/A,,Scattered Clouds,60,2012-11-05 16:36:00
11:51 AM,42.8,26.6,53,30.20,10.0,ENE,5.8,-,N/A,,Mostly Cloudy,70,2012-11-05 16:51:00
12:11 PM,42.8,24.8,49,30.19,10.0,ESE,3.5,-,N/A,,Mostly Cloudy,110,2012-11-05 17:11:00
12:31 PM,42.8,24.8,49,30.18,10.0,ESE,5.8,-,N/A,,Scattered Clouds,120,2012-11-05 17:31:00
12:51 PM,44.6,26.6,49,30.18,10.0,SE,6.9,-,N/A,,Mostly Cloudy,140,2012-11-05 17:51:00
1:11 PM,44.6,26.6,49,30.17,10.0,SSE,3.5,-,N/A,,Mostly Cloudy,150,2012-11-05 18:11:00
1:31 PM,42.8,26.6,53,30.17,10.0,East,6.9,-,N/A,,Mostly Cloudy,80,2012-11-05 18:31:00
1:51 PM,41.0,26.6,57,30.16,10.0,SE,4.6,-,N/A,,Scattered Clouds,140,2012-11-05 18:51:00
2:31 PM,42.8,26.6,53,30.16,10.0,South,4.6,-,N/A,,Scattered Clouds,170,2012-11-05 19:31:00
2:51 PM,42.8,26.6,53,30.16,10.0,SSE,4.6,-,N/A,,Overcast,150,2012-11-05 19:51:00
3:12 PM,42.8,26.6,53,30.16,10.0,ESE,6.9,-,N/A,,Mostly Cloudy,110,2012-11-05 20:12:00
3:52 PM,42.8,26.6,53,30.16,10.0,SE,8.1,-,N/A,,Clear,130,2012-11-05 20:52:00
4:12 PM,42.8,26.6,53,30.16,10.0,SE,5.8,-,N/A,,Clear,140,2012-11-05 21:12:00
4:32 PM,41.0,26.6,57,30.15,10.0,SSE,8.1,-,N/A,,Clear,150,2012-11-05 21:32:00
4:52 PM,39.2,26.6,61,30.15,10.0,SSE,4.6,-,N/A,,Clear,150,2012-11-05 21:52:00
5:12 PM,39.2,26.6,61,30.15,10.0,SE,4.6,-,N/A,,Clear,140,2012-11-05 22:12:00
5:32 PM,37.4,26.6,65,30.15,10.0,Calm,Calm,-,N/A,,Clear,0,2012-11-05 22:32:00
5:52 PM,37.4,26.6,65,30.16,10.0,Calm,Calm,-,N/A,,Clear,0,2012-11-05 22:52:00
6:13 PM,33.8,26.6,75,30.16,10.0,Calm,Calm,-,N/A,,Clear,0,2012-11-05 23:13:00
6:33 PM,33.8,26.6,75,30.17,10.0,Calm,Calm,-,N/A,,Clear,0,2012-11-05 23:33:00
6:53 PM,33.8,26.6,75,30.17,10.0,Calm,Calm,-,N/A,,Clear,0,2012-11-05 23:53:00
7:13 PM,30.2,26.6,86,30.16,10.0,Calm,Calm,-,N/A,,Clear,0,2012-11-06 00:13:00
7:33 PM,30.2,26.6,86,30.16,10.0,Calm,Calm,-,N/A,,Clear,0,2012-11-06 00:33:00
7:53 PM,30.2,24.8,80,30.16,10.0,Calm,Calm,-,N/A,,Clear,0,2012-11-06 00:53:00
8:13 PM,28.4,24.8,86,30.17,10.0,Calm,Calm,-,N/A,,Clear,0,2012-11-06 01:13:00
8:33 PM,28.4,24.8,86,30.16,10.0,Calm,Calm,-,N/A,,Clear,0,2012-11-06 01:33:00
9:14 PM,28.4,24.8,86,30.16,10.0,Calm,Calm,-,N/A,,Clear,0,2012-11-06 02:14:00
9:34 PM,28.4,24.8,86,30.16,10.0,Calm,Calm,-,N/A,,Clear,0,2012-11-06 02:34:00
9:54 PM,26.6,24.8,93,30.16,10.0,Calm,Calm,-,N/A,,Scattered Clouds,0,2012-11-06 02:54:00
10:34 PM,28.4,24.8,86,30.16,10.0,Calm,Calm,-,N/A,,Mostly Cloudy,0,2012-11-06 03:34:00
10:54 PM,28.4,26.6,93,30.16,7.0,Calm,Calm,-,N/A,,Overcast,0,2012-11-06 03:54:00
11:14 PM,28.4,26.6,93,30.15,7.0,Calm,Calm,-,N/A,,Overcast,0,2012-11-06 04:14:00
11:34 PM,30.2,26.6,86,30.15,10.0,Calm,Calm,-,N/A,,Overcast,0,2012-11-06 04:34:00
11:54 PM,30.2,26.6,86,30.15,10.0,Calm,Calm,-,N/A,,Overcast,0,2012-11-06 04:54:00